Hourly Weather Roundup
Issued by NWS Central Illinois

Home | Current Version | Previous Version | Text Only | Print | Product List | Glossary On
Versions: 1 2 3 4 5 6 7 8 9 10 11 12 13 14 15 16 17 18 19 20 21 22 23 24 25 26 27 28 29 30 31 32 33 34 35 36 37 38 39 40 41 42 43 44 45 46 47 48 49 50
000
NZUS43 KILX 040410
HWRILX

AREA WEATHER ROUNDUP
NATIONAL WEATHER SERVICE, LINCOLN IL
1000 PM CST TUE MAR 03 2015


CITY           SKY/WX    TMP DP  RH WIND       PRES   REMARKS
BLOOMINGTON    CLOUDY    33  30  89 NW16      29.90R WCI  22
CHAMPAIGN      CLOUDY    34  31  88 W10       29.90R WCI  26
DECATUR        CLOUDY    35  30  82 NW9       29.91R WCI  28
FLORA          RAIN      39  39 100 W5        29.94R
GALESBURG      CLOUDY    28  24  83 NW17      29.93R WCI  16
JACKSONVILLE   CLOUDY    36  30  78 NW12      29.91F WCI  28
LACON          CLOUDY    32  26  80 W3        29.90F
LAWRENCEVILLE  LGT RAIN  38  38 100 SW5       29.93S WCI  34
LITCHFIELD     CLOUDY    34  32  94 N8        29.92R FOG     WCI  27
$$


CITY           SKY/WX    TMP DP  RH WIND       PRES   REMARKS
LINCOLN        CLOUDY    35  31  85 NW7       29.92R WCI  29
MACOMB         CLOUDY    32  29  88 NW15G22   29.95F WCI  22
MATTOON        CLOUDY    35  33  92 NW12      29.90S WCI  27
MT CARMEL AP   RAIN      41  37  87 CALM      29.93S VSB 1/2
OLNEY-NOBLE AP RAIN      36  36 100 CALM      29.93R VSB 3/4
PARIS          CLOUDY    35  35  99 W8        29.90F WCI  29
PEORIA         CLOUDY    34  26  72 NW7       29.91F WCI  28
PONTIAC        CLOUDY    33  31  90 NW10      29.90S WCI  25
RANTOUL        CLOUDY    36  32  87 NW13      29.88R WCI  27
ROBINSON       LGT RAIN  38  38 100 NW3       29.93F
SPRINGFIELD    CLOUDY    36  29  75 NW12      29.91S WCI  28
TAYLORVILLE    CLOUDY    34  32  93 NW10      29.92R WCI  26
$$

...REGIONAL REPORTS...


CITY           SKY/WX    TMP DP  RH WIND       PRES   REMARKS
CHICAGO O`HARE CLOUDY    31  23  72 W10       29.85R WCI  22
KANKAKEE       CLOUDY    33  29  87 W14G20    29.88S WCI  23
MOLINE         CLOUDY    28  20  71 NW17G28   29.93R WCI  16
MOUNT VERNON   CLOUDY    37  34  87 CALM      29.92S VSB 1/2
PITTSFIELD     CLOUDY    36  30  80 N10       29.92F WCI  28
QUINCY         CLOUDY    33  29  85 N8        29.93F WCI  26
ROCKFORD       CLOUDY    31  23  72 NW14      29.88R WCI  21
$$


CITY           SKY/WX    TMP DP  RH WIND       PRES   REMARKS
BURLINGTON     CLOUDY    29  23  78 NW15G24   29.95R WCI  18
CEDAR RAPIDS   MOCLDY    18  12  77 NW20G32   29.97R WCI   2
DES MOINES     MOCLDY    20  10  65 N15       30.05R WCI   6
KIRKSVILLE     NOT AVBL
OTTUMWA        CLOUDY    24  15  68 N21       30.01R WCI   9
ST LOUIS       CLOUDY    39  35  86 N7        29.92R WCI  34
$$


CITY           SKY/WX    TMP DP  RH WIND       PRES   REMARKS
TERRE HAUTE    LGT RAIN  37  35  92 NW6       29.91S FOG     WCI  32
EVANSVILLE     RAIN      45  42  89 N9        29.90F FOG
INDIANAPOLIS   LGT RAIN  36  34  92 SW9       29.88R FOG     WCI  29
LAFAYETTE      CLOUDY    34  31  88 W8        29.87R WCI  27
MADISON        CLOUDY    30  21  69 W7        29.82R WCI  23
MILWAUKEE      CLOUDY    30  22  72 SW8       29.82R WCI  22
$$





USA.gov is the U.S. government's official web portal to all federal, state and local government web resources and services.